Total_Precipitation_Accumulation
3.20 3.90 5.17 6.11 5.83 4.80 3.61 3.02 2.90 3.09 3.08 2.65 2.15 2.13 1.61 1.72 2.24 2.32 1.28 1.08 0.99 0.90 0.96 0.81 0.85 0.77 0.87 0.87 0.90 0.94 1.14 1.46 1.64 0.90 0.67 0.56 0.48 0.32 0.25 0.28 0.24 0.19 0.17
3.15 3.42 3.85 4.77 5.58 5.49 5.03 3.73 3.37 2.75 2.85 2.83 2.50 2.39 2.22 1.80 1.80 2.11 2.13 1.43 1.15 0.99 0.91 0.85 0.74 0.77 0.79 0.85 0.89 0.85 0.83 0.90 1.08 0.78 0.40 0.28 0.24 0.19 0.18 0.22 0.20 0.20 0.18
3.36 3.38 3.26 3.67 4.61 5.33 5.50 5.36 4.91 4.07 3.22 2.84 2.83 2.51 2.24 2.19 2.07 1.98 1.90 2.00 1.49 1.18 1.04 1.07 0.87 1.05 1.02 1.08 1.14 1.10 0.98 0.89 0.89 0.93 0.62 0.40 0.31 0.31 0.37 0.40 0.38 0.38 0.36
3.10 3.61 3.28 3.28 3.89 4.82 5.42 5.95 6.02 5.64 4.94 3.95 3.21 2.92 2.70 2.53 2.38 2.35 2.41 2.03 1.86 1.56 1.36 1.18 1.29 1.17 1.14 1.00 1.14 1.07 1.05 1.06 1.07 1.08 0.99 0.83 0.64 0.51 0.67 0.64 0.55 0.48 0.48
2.35 2.77 3.04 3.44 3.58 4.34 5.14 5.83 5.94 6.51 6.42 5.66 4.89 4.01 3.41 3.61 3.63 3.33 3.18 2.93 2.61 2.50 2.14 1.79 1.50 1.55 1.40 1.15 1.18 1.15 1.25 1.43 1.53 1.72 1.61 1.45 1.34 1.13 0.96 0.86 1.02 0.91 0.88
2.30 2.37 2.26 2.82 3.49 3.98 4.48 4.90 5.38 6.20 6.65 7.36 6.58 5.63 4.90 3.89 4.25 4.19 3.84 3.71 3.47 3.33 3.01 2.43 2.00 2.09 1.75 1.67 1.53 1.47 1.40 1.61 1.76 1.82 1.67 1.48 1.11 0.99 0.95 1.18 1.43 1.60 1.52
1.77 2.05 2.16 2.41 2.41 3.27 3.82 4.25 4.85 5.71 6.93 7.61 7.95 7.62 6.90 6.14 5.18 4.33 4.77 4.34 3.94 3.57 3.20 2.97 2.71 2.26 2.24 1.96 1.97 1.86 1.84 2.03 2.00 1.73 1.61 1.41 1.32 1.16 1.46 1.75 1.79 1.85 1.70
1.19 1.60 2.13 2.12 2.20 2.32 2.70 3.90 4.27 4.48 5.23 6.65 7.46 8.18 8.54 7.86 6.71 5.21 5.04 4.84 4.36 3.84 3.44 3.37 3.28 2.86 2.63 2.66 2.54 2.57 2.13 1.84 1.64 1.57 1.53 1.41 1.43 1.43 1.64 1.90 1.79 1.88 1.68
0.64 0.84 1.19 1.52 1.66 1.74 2.13 2.69 2.98 3.48 3.84 4.53 5.01 5.87 6.72 6.98 6.68 5.97 5.52 4.70 4.18 3.71 3.18 2.99 3.40 3.06 3.08 2.98 2.83 2.87 2.18 1.67 1.74 1.78 1.60 1.51 1.51 1.38 1.27 1.57 1.76 1.72 1.63
0.45 0.52 0.62 1.00 1.27 1.70 1.96 2.13 2.47 2.86 3.35 3.38 3.47 3.76 4.18 4.63 5.40 6.39 6.89 6.90 5.37 4.37 3.47 2.62 3.21 2.79 2.78 3.26 2.63 2.14 2.18 1.66 1.37 1.44 1.37 1.27 1.17 1.20 1.45 1.35 1.72 2.52 2.01
0.60 0.65 0.76 0.98 1.09 1.34 1.61 1.70 1.73 1.75 2.05 2.38 2.48 2.67 2.75 2.85 3.36 4.23 5.36 6.53 6.72 5.88 4.87 3.71 2.99 3.54 3.28 3.42 3.53 2.69 2.17 1.99 1.89 1.48 1.20 1.13 1.09 1.05 1.05 1.11 1.39 2.37 2.69
0.68 0.61 0.62 0.56 0.57 0.63 0.80 0.93 1.10 1.18 1.15 1.40 1.57 1.65 1.86 1.89 2.46 3.12 3.69 4.48 5.39 5.58 5.19 4.17 3.45 3.65 2.96 3.11 3.50 3.41 2.58 2.16 1.92 1.67 1.48 1.17 0.99 0.96 1.05 1.13 1.19 1.33 1.49
0.16 0.14 0.16 0.11 0.10 0.12 0.23 0.42 0.59 0.85 1.02 1.04 1.05 1.07 1.19 1.30 1.51 2.09 2.72 3.72 4.52 4.77 4.93 4.97 4.47 3.68 3.32 3.24 3.42 3.61 3.71 3.44 3.24 2.83 2.33 1.72 1.34 1.25 1.21 1.16 1.23 1.19 1.25
0.02 0.02 0.01 0.01 0.03 0.03 0.08 0.20 0.33 0.51 0.69 0.86 0.91 0.90 0.89 0.81 0.92 1.18 1.63 2.22 2.90 3.63 4.14 3.99 3.49 3.55 3.68 3.67 3.85 3.67 3.96 4.07 4.26 3.70 3.07 2.46 2.16 1.96 1.72 1.71 1.88 1.72 2.01
0.09 0.13 0.17 0.15 0.13 0.07 0.06 0.12 0.23 0.41 0.61 0.69 0.75 0.76 0.86 0.86 0.99 1.23 1.37 1.47 1.90 2.69 3.30 3.30 2.84 2.61 3.03 3.59 3.55 3.43 3.53 3.89 3.96 3.63 3.38 3.20 3.06 3.12 2.74 2.54 2.57 2.54 2.32
0.03 0.02 0.07 0.12 0.23 0.33 0.36 0.41 0.50 0.55 0.64 0.69 0.80 0.75 0.63 0.86 0.98 1.00 1.04 1.34 1.54 1.76 1.98 2.24 2.75 2.95 2.95 3.20 3.27 3.37 3.40 3.84 3.58 3.41 3.22 3.19 3.33 3.31 3.43 3.31 3.33 3.03 2.42
0.13 0.09 0.05 0.06 0.03 0.03 0.06 0.11 0.17 0.27 0.35 0.45 0.64 0.83 0.85 0.83 0.79 0.91 1.15 1.28 1.39 1.39 1.36 1.36 1.74 2.33 2.90 3.25 3.43 3.39 3.34 3.29 3.38 3.44 3.32 3.28 3.41 3.55 4.22 3.60 3.44 3.29 2.90
0.27 0.29 0.17 0.11 0.07 0.07 0.07 0.06 0.06 0.05 0.03 0.07 0.18 0.30 0.46 0.57 0.63 0.65 0.86 0.94 0.92 1.06 1.15 1.23 1.25 1.53 1.93 2.35 2.78 3.27 3.36 3.32 3.39 3.33 3.23 3.12 3.24 3.53 3.62 3.61 3.52 3.43 3.22
0.43 0.40 0.35 0.28 0.20 0.17 0.12 0.10 0.11 0.10 0.07 0.04 0.04 0.11 0.23 0.35 0.46 0.57 0.60 0.59 0.64 0.89 1.01 1.16 1.22 1.21 1.38 1.56 1.76 2.05 2.69 3.30 3.66 3.57 3.37 3.25 3.22 3.59 3.48 3.16 3.12 3.64 3.57
0.50 0.58 0.51 0.43 0.38 0.31 0.25 0.21 0.21 0.24 0.25 0.21 0.17 0.15 0.20 0.28 0.29 0.25 0.39 0.46 0.60 0.77 0.85 0.97 1.08 1.20 1.27 1.44 1.54 1.66 1.80 2.27 2.68 2.89 2.98 3.09 3.27 3.49 3.49 3.12 2.84 2.79 2.68
0.47 0.49 0.52 0.47 0.44 0.42 0.41 0.39 0.33 0.32 0.36 0.37 0.33 0.42 0.55 0.47 0.29 0.31 0.31 0.39 0.53 0.63 0.74 0.84 0.91 1.07 1.17 1.29 1.49 1.67 1.90 1.86 1.97 2.49 2.76 2.83 3.00 2.99 2.51 2.66 2.69 2.72 2.74
0.42 0.47 0.42 0.40 0.45 0.53 0.53 0.52 0.54 0.51 0.47 0.46 0.40 0.44 0.52 0.44 0.36 0.38 0.45 0.48 0.48 0.54 0.59 0.70 0.80 0.85 1.16 1.56 1.79 1.92 1.95 1.99 1.96 2.21 2.29 2.24 2.37 2.37 2.31 2.31 2.25 2.32 2.45
0.27 0.30 0.32 0.33 0.35 0.45 0.53 0.49 0.49 0.52 0.46 0.40 0.39 0.41 0.43 0.43 0.41 0.41 0.39 0.42 0.53 0.59 0.56 0.59 0.66 0.73 0.73 1.08 1.59 2.22 2.38 2.04 2.06 2.23 2.32 2.14 2.03 2.05 2.26 2.41 2.18 2.16 2.05
0.16 0.18 0.20 0.20 0.25 0.28 0.30 0.34 0.37 0.43 0.45 0.41 0.36 0.36 0.40 0.39 0.36 0.37 0.37 0.39 0.42 0.47 0.51 0.56 0.63 0.68 0.78 0.95 1.26 1.59 2.03 2.17 2.29 2.40 2.62 2.71 2.11 1.91 1.87 1.90 1.78 1.83 1.88
0.15 0.14 0.15 0.17 0.21 0.23 0.26 0.28 0.31 0.32 0.35 0.38 0.40 0.41 0.40 0.43 0.43 0.41 0.42 0.43 0.47 0.46 0.44 0.52 0.66 0.77 0.84 1.05 1.24 1.36 1.80 1.83 1.92 1.99 1.94 1.96 1.85 1.58 1.65 1.78 1.55 1.64 1.68
0.18 0.18 0.19 0.20 0.22 0.22 0.26 0.27 0.28 0.31 0.35 0.37 0.41 0.45 0.46 0.49 0.46 0.43 0.47 0.53 0.52 0.47 0.46 0.47 0.58 0.76 0.90 1.07 1.21 1.45 1.53 1.52 1.39 1.26 1.48 1.86 1.58 1.39 1.43 1.61 1.50 1.64 1.59